This demonstration page uses our WeatherBlox Daily Observations layout. Learn more.

Left ArrowRight Arrow

39.51506, -84.39828

Hourly Observations for May 5, 2018

Temp ( °F °C ) Dew Point ( °F °C ) Humidity (%) Winds ( mph kmh ) Pressure ( in mb ) Visibility ( mi km ) Precip ( " mm )
12:15 am 00:15 Clear 57 13.8 55 13 95 95 NNE 5 7 30.09 1019 10 16 N/A
12:35 am 00:35 Clear 57 13.9 54 12.1 89 89 N 3 6 30.09 1019 10 16 N/A
12:55 am 00:55 Clear 55 12.9 55 12.6 98 98 N N/A 30.09 1019 10 16 N/A
1:15 am 01:15 Mostly Cloudy with Mist and Fog 54 12.3 53 11.9 97 97 N N/A 30.09 1019 2 2 N/A
1:35 am 01:35 Clear 54 12.2 54 12 99 99 N N/A 30.09 1019 7 11 N/A
1:55 am 01:55 Mostly Cloudy with Fog 52 11.1 52 10.9 99 99 N N/A 30.09 1019 1 1 N/A
2:15 am 02:15 Mostly Cloudy with Fog 53 11.5 52 11.3 99 99 N N/A 30.09 1019 1 1 N/A
2:35 am 02:35 Clear 53 11.4 52 11.2 99 99 N N/A 30.09 1019 10 16 N/A
2:55 am 02:55 Clear 53 11.4 52 11.1 98 98 N N/A 30.09 1019 10 16 N/A
3:15 am 03:15 Clear 53 11.6 52 11.2 97 97 N N/A 30.09 1019 10 16 N/A
3:35 am 03:35 Clear 52 11.3 52 10.9 97 97 N N/A 30.09 1019 10 16 N/A
3:55 am 03:55 Clear 51 10.8 51 10.4 97 97 NNE 5 7 30.09 1019 10 16 N/A
4:15 am 04:15 Clear 51 10.6 51 10.3 98 98 N N/A 30.09 1019 10 16 N/A
4:35 am 04:35 Clear 51 10.5 50 10.2 98 98 N 3 6 30.09 1019 10 16 N/A
4:55 am 04:55 Clear 51 10.7 51 10.4 98 98 N N/A 30.09 1019 10 16 N/A
5:15 am 05:15 Clear 51 10.8 51 10.4 97 97 N 5 7 30.09 1019 10 16 N/A
5:35 am 05:35 Clear 52 11.2 51 10.7 97 97 N N/A 30.09 1019 10 16 N/A
5:55 am 05:55 Clear 52 11.1 51 10.4 96 96 N N/A 30.09 1019 10 16 N/A
6:15 am 06:15 Clear 51 10.8 51 10.4 97 97 N 3 6 30.09 1019 10 16 N/A
6:35 am 06:35 Sunny 52 11.2 51 10.7 97 97 N N/A 30.09 1019 10 16 N/A
6:55 am 06:55 Sunny 52 11 51 10.6 97 97 NNE 3 6 30.12 1020 10 16 N/A
7:15 am 07:15 Sunny 52 11.2 51 10.7 97 97 N N/A 30.12 1020 10 16 N/A
7:35 am 07:35 Sunny 53 11.9 53 11.5 97 97 N N/A 30.12 1020 10 16 N/A
7:55 am 07:55 Sunny 54 12.1 53 11.7 97 97 N N/A 30.09 1019 10 16 N/A
8:15 am 08:15 Sunny 55 12.8 54 12 95 95 N N/A 30.12 1020 10 16 N/A
8:35 am 08:35 Sunny 56 13.4 55 12.6 95 95 NNE 3 6 30.09 1019 10 16 N/A
8:55 am 08:55 Sunny 56 13.6 55 12.6 94 94 N N/A 30.09 1019 10 16 N/A
9:15 am 09:15 Sunny 58 14.4 55 12.7 90 90 NNW 3 6 30.12 1020 10 16 N/A
9:35 am 09:35 Sunny 59 15.1 55 13 87 87 N N/A 30.09 1019 10 16 N/A
9:55 am 09:55 Sunny 61 16 56 13.1 83 83 N 5 7 30.09 1019 10 16 N/A
10:15 am 10:15 Sunny 62 16.5 55 12.8 79 79 N N/A 30.06 1018 10 16 N/A
10:35 am 10:35 Sunny 63 17.2 55 12.6 75 75 ENE 8 13 30.06 1018 10 16 N/A
10:55 am 10:55 Sunny 64 17.8 52 11.2 65 65 N N/A 30.06 1018 10 16 N/A
11:15 am 11:15 Sunny 65 18.2 53 11.5 65 65 E 7 11 30.06 1018 10 16 N/A
11:35 am 11:35 Sunny 66 18.9 53 11.7 63 63 E 7 11 30.06 1018 10 16 N/A
11:55 am 11:55 Sunny 66 19.1 53 11.7 62 62 SE 6 9 30.06 1018 10 16 N/A
12:15 pm 12:15 Sunny 67 19.3 53 11.4 60 60 E 6 9 30.06 1018 10 16 N/A
12:35 pm 12:35 Sunny 67 19.3 53 11.9 62 62 ESE 8 13 30.03 1017 10 16 N/A
12:55 pm 12:55 Sunny 67 19.6 53 11.8 61 61 E 3 6 30.06 1018 10 16 N/A
1:15 pm 13:15 Hazy 67 19.5 53 11.5 60 60 N N/A 30.06 1018 7 11 N/A
1:35 pm 13:35 Sunny 68 19.8 53 11.8 60 60 E 5 7 30.03 1017 10 16 N/A
1:55 pm 13:55 Sunny 68 19.9 52 11.1 57 57 N N/A 30.03 1017 10 16 N/A
2:15 pm 14:15 Sunny 67 19.6 53 11.5 60 60 SE 3 6 30.03 1017 10 16 N/A
2:35 pm 14:35 Sunny 67 19.7 53 11.5 59 59 E 3 6 30.00 1016 10 16 N/A
2:55 pm 14:55 Sunny 67 19.6 53 11.6 60 60 N N/A 30.03 1017 10 16 N/A
3:15 pm 15:15 Sunny 67 19.5 53 11.9 62 62 N N/A 30.03 1017 10 16 N/A
3:35 pm 15:35 Partly Cloudy 67 19.7 54 12.2 62 62 N N/A 30.03 1017 10 16 N/A
3:55 pm 15:55 Mostly Cloudy 67 19.6 52 11.2 59 59 N N/A 30.03 1017 10 16 N/A
4:15 pm 16:15 Cloudy 66 18.9 55 12.9 68 68 S 6 9 30.03 1017 10 16 N/A
4:35 pm 16:35 Cloudy 66 18.9 56 13.1 69 69 SSE 7 11 30.00 1016 10 16 N/A
4:55 pm 16:55 Cloudy 65 18.5 57 13.8 74 74 SSE 8 13 30.00 1016 10 16 N/A
5:15 pm 17:15 Cloudy 65 18.5 57 13.7 74 74 ESE 8 13 30.00 1016 10 16 N/A
5:35 pm 17:35 Cloudy 65 18.1 58 14.3 79 79 SE 7 11 30.00 1016 10 16 N/A
5:55 pm 17:55 Mostly Cloudy 64 17.9 57 13.8 77 77 SSE 5 7 30.00 1016 10 16 N/A
6:15 pm 18:15 Cloudy 64 17.9 57 13.9 78 78 ESE 5 7 30.00 1016 10 16 N/A
6:35 pm 18:35 Cloudy 64 17.8 57 13.9 78 78 SSE 3 6 30.00 1016 10 16 N/A
6:55 pm 18:55 Cloudy 64 17.9 56 13.3 75 75 N N/A 30.00 1016 10 16 N/A
7:15 pm 19:15 Mostly Cloudy 64 17.8 57 13.7 77 77 E 3 6 29.97 1015 10 16 N/A
7:35 pm 19:35 Cloudy 64 17.5 57 14.1 81 81 N N/A 29.97 1015 10 16 N/A
7:55 pm 19:55 Partly Cloudy 63 17 58 14.2 84 84 N N/A 29.97 1015 10 16 N/A
8:15 pm 20:15 Sunny 63 17 57 14.1 83 83 N N/A 29.97 1015 10 16 N/A
8:35 pm 20:35 Sunny 62 16.6 57 13.9 84 84 E 3 6 29.97 1015 10 16 N/A
8:55 pm 20:55 Hazy 62 16.6 55 12.6 77 77 ESE 6 9 29.97 1015 4 6 N/A
9:15 pm 21:15 Clear 62 16.4 54 12.3 77 77 N N/A 30.00 1016 7 11 N/A
9:35 pm 21:35 Clear 61 16.1 54 12.2 78 78 ESE 3 6 29.97 1015 10 16 N/A
9:55 pm 21:55 Clear 61 15.9 54 12.4 80 80 N N/A 29.97 1015 10 16 N/A
10:15 pm 22:15 Clear 60 15.7 54 12.4 81 81 N N/A 30.00 1016 10 16 N/A
10:35 pm 22:35 Clear 60 15.7 54 12.3 80 80 N N/A 30.00 1016 10 16 N/A
10:55 pm 22:55 Partly Cloudy 60 15.4 54 12 80 80 N N/A 30.03 1017 10 16 N/A
11:15 pm 23:15 Clear 58 14.2 55 12.7 91 91 N N/A 30.03 1017 10 16 N/A
11:35 pm 23:35 Clear 58 14.4 54 12.2 87 87 N N/A 30.03 1017 10 16 N/A
11:55 pm 23:55 Clear 57 13.8 55 12.8 94 94 N N/A 30.03 1017 10 16 N/A

Powered by AerisWeather